Weather History for Burlington, WA

Change the Weather History Date:

Monday, March 4, 2013

  Actual Average Record
Temperature  
Mean Temperature 40 °F -  
Max Temperature 48 °F 49 °F 66 °F (1987)
Min Temperature 32 °F 36 °F 20 °F (1989)
Degree Days  
Heating Degree Days 25    
Moisture  
Dew Point 36 °F    
Average Humidity 86    
Maximum Humidity 100    
Minimum Humidity 66    
Precipitation  
Precipitation 0.00 in - - ()
Sea Level Pressure  
Sea Level Pressure 30.17 in    
Wind  
Wind Speed 7 mph (NNE)    
Max Wind Speed 13 mph    
Max Gust Speed 17 mph    
Visibility 10 miles    
Events      
Averages and records for this station are not official NWS values.
T = Trace of Precipitation, MM = Missing Value Source: NWS Daily Summary

Daily Weather History Graph

Daily Weather History Graph

Search for Another Location

Airport:

Trip Planner

Search our weather history database for the weather conditions in past years. The results will help you decide how hot, cold, wet, or windy it might be!

Date:

Astronomy

Mar. 04, 2013 Rise Set
Actual Time 6:44 AM PST 5:58 PM PST
Civil Twilight 6:13 AM PST 6:30 PM PST
Nautical Twilight 5:37 AM PST 7:06 PM PST
Astronomical Twilight 5:00 AM PST 7:43 PM PST
Moon 1:20 AM PST (3/4) 10:24 AM PST (3/4)
Length of Visible Light 12h 16m
Length of Day
11h 14m
Waning Gibbous, 51% of the Moon is Illuminated
Mar 4
Waning Gibbous
Mar 4
Last Quarter
Mar 11
New
Mar 19
First Quarter
Mar 27
Full

Hourly Weather History & Observations

Time (PST) Temp. Windchill Dew Point Humidity Pressure Visibility Wind Dir Wind Speed Gust Speed Precip Events Conditions
12:15 AM 35.6 °F 31.7 °F 35.6 °F 100% 30.33 in 10.0 mi ENE 4.6 mph - 0.00 in   Mostly Cloudy
12:35 AM 33.8 °F 30.8 °F 33.8 °F 100% 30.33 in 10.0 mi ENE 3.5 mph - 0.00 in   Mostly Cloudy
12:55 AM 33.8 °F 30.8 °F 33.8 °F 100% 30.33 in 10.0 mi ENE 3.5 mph - 0.00 in   Partly Cloudy
1:35 AM 33.8 °F 27.7 °F 33.8 °F 100% 30.32 in 10.0 mi NE 6.9 mph - 0.00 in   Clear
1:55 AM 33.8 °F 29.6 °F 33.8 °F 100% 30.32 in 10.0 mi NE 4.6 mph - 0.00 in   Clear
2:15 AM 33.8 °F 28.6 °F 33.8 °F 100% 30.32 in 10.0 mi NE 5.8 mph - 0.00 in   Clear
2:35 AM 33.8 °F 29.6 °F 33.8 °F 100% 30.32 in 10.0 mi NE 4.6 mph - 0.00 in   Clear
3:15 AM 33.8 °F 26.4 °F 33.8 °F 100% 30.31 in 10.0 mi NNE 9.2 mph - 0.00 in   Clear
3:35 AM 33.8 °F 27.0 °F 33.8 °F 100% 30.31 in 10.0 mi NE 8.1 mph - 0.00 in   Clear
3:55 AM 33.8 °F 28.6 °F 33.8 °F 100% 30.30 in 10.0 mi NE 5.8 mph - 0.00 in   Clear
4:15 AM 33.8 °F 27.0 °F 33.8 °F 100% 30.30 in 10.0 mi NE 8.1 mph - 0.00 in   Clear
4:35 AM 33.8 °F 27.0 °F 33.8 °F 100% 30.30 in 10.0 mi NE 8.1 mph - 0.00 in   Clear
4:55 AM 33.8 °F 26.4 °F 33.8 °F 100% 30.30 in 10.0 mi NE 9.2 mph - 0.00 in   Clear
5:15 AM 33.8 °F 27.0 °F 33.8 °F 100% 30.29 in 10.0 mi NNE 8.1 mph - 0.00 in   Clear
5:35 AM 33.8 °F 27.0 °F 33.8 °F 100% 30.29 in 10.0 mi NNE 8.1 mph - 0.00 in   Clear
5:55 AM 33.8 °F 27.7 °F 33.8 °F 100% 30.29 in 10.0 mi ENE 6.9 mph - 0.00 in   Clear
6:15 AM 32.0 °F 26.4 °F 32.0 °F 100% 30.29 in 10.0 mi NE 5.8 mph - 0.00 in   Clear
6:35 AM 33.8 °F 27.0 °F 33.8 °F 100% 30.28 in 10.0 mi NE 8.1 mph - 0.00 in   Clear
6:55 AM 33.8 °F 27.0 °F 33.8 °F 100% 30.27 in 10.0 mi NE 8.1 mph - 0.00 in   Clear
7:15 AM 33.8 °F 27.7 °F 33.8 °F 100% 30.27 in 10.0 mi NE 6.9 mph - 0.00 in   Clear
7:35 AM 33.8 °F 30.8 °F 33.8 °F 100% 30.27 in 10.0 mi NNE 3.5 mph - 0.00 in   Clear
7:55 AM 33.8 °F 28.6 °F 33.8 °F 100% 30.27 in 10.0 mi NE 5.8 mph - 0.00 in   Clear
8:15 AM 35.6 °F 30.7 °F 35.6 °F 100% 30.27 in 10.0 mi NE 5.8 mph - 0.00 in   Clear
8:35 AM 35.6 °F 29.9 °F 35.6 °F 100% 30.27 in 10.0 mi NE 6.9 mph - 0.00 in   Clear
8:55 AM 37.4 °F 32.8 °F 35.6 °F 93% 30.26 in 10.0 mi NNE 5.8 mph - 0.00 in   Clear
9:15 AM 39.2 °F 33.6 °F 35.6 °F 87% 30.26 in 10.0 mi NE 8.1 mph - 0.00 in   Clear
9:35 AM 39.2 °F 33.6 °F 35.6 °F 87% 30.26 in 10.0 mi NE 8.1 mph - 0.00 in   Clear
9:55 AM 39.2 °F 33.6 °F 35.6 °F 87% 30.25 in 10.0 mi NNE 8.1 mph - 0.00 in   Clear
10:15 AM 39.2 °F 35.0 °F 35.6 °F 87% 30.25 in 10.0 mi NE 5.8 mph - 0.00 in   Clear
10:35 AM 42.8 °F 40.1 °F 37.4 °F 81% 30.25 in 10.0 mi NNE 4.6 mph - 0.00 in   Clear
10:55 AM 42.8 °F 41.1 °F 35.6 °F 76% 30.24 in 10.0 mi North 3.5 mph - 0.00 in   Clear
11:15 AM 42.8 °F 39.3 °F 37.4 °F 81% 30.23 in 9.0 mi North 5.8 mph - 0.00 in   Clear
11:35 AM 44.6 °F 42.2 °F 37.4 °F 76% 30.22 in 10.0 mi NNE 4.6 mph - 0.00 in   Clear
11:55 AM 44.6 °F 42.2 °F 37.4 °F 76% 30.21 in 10.0 mi NW 4.6 mph - 0.00 in   Clear
12:15 PM 46.4 °F 43.5 °F 39.2 °F 76% 30.20 in 10.0 mi NW 5.8 mph - 0.00 in   Clear
12:35 PM 46.4 °F 43.5 °F 39.2 °F 76% 30.19 in 9.0 mi WNW 5.8 mph - 0.00 in   Clear
12:55 PM 46.4 °F 42.4 °F 39.2 °F 76% 30.18 in 10.0 mi NW 8.1 mph - 0.00 in   Clear
1:15 PM 46.4 °F 41.5 °F 39.2 °F 76% 30.17 in 10.0 mi NW 10.4 mph - 0.00 in   Clear
1:35 PM 46.4 °F 41.9 °F 39.2 °F 76% 30.15 in 10.0 mi NW 9.2 mph - 0.00 in   Clear
1:55 PM 48.2 °F - 37.4 °F 66% 30.14 in 10.0 mi WNW 8.1 mph - 0.00 in   Clear
2:15 PM 48.2 °F - 37.4 °F 66% 30.14 in 10.0 mi NW 9.2 mph - 0.00 in   Clear
2:35 PM 48.2 °F - 39.2 °F 71% 30.12 in 10.0 mi NW 9.2 mph - 0.00 in   Clear
2:55 PM 48.2 °F - 41.0 °F 76% 30.11 in 10.0 mi NW 8.1 mph - 0.00 in   Clear
3:35 PM 48.2 °F - 42.8 °F 82% 30.09 in 10.0 mi NNW 9.2 mph - 0.00 in   Clear
3:55 PM 48.2 °F - 42.8 °F 82% 30.08 in 10.0 mi NW 10.4 mph - 0.00 in   Clear
4:15 PM 48.2 °F - 41.0 °F 76% 30.07 in 10.0 mi NNW 9.2 mph - 0.00 in   Clear
4:35 PM 46.4 °F 42.4 °F 41.0 °F 81% 30.06 in 10.0 mi NNW 8.1 mph - 0.00 in   Clear
4:55 PM 46.4 °F 41.5 °F 41.0 °F 81% 30.05 in 10.0 mi NW 10.4 mph - 0.00 in   Clear
5:15 PM 46.4 °F 41.5 °F 41.0 °F 81% 30.05 in 10.0 mi NW 10.4 mph - 0.00 in   Clear
5:35 PM 44.6 °F 40.2 °F 42.8 °F 93% 30.05 in 10.0 mi NW 8.1 mph - 0.00 in   Clear
5:55 PM 42.8 °F 38.6 °F 42.8 °F 100% 30.04 in 10.0 mi NW 6.9 mph - 0.00 in   Clear
6:15 PM 42.8 °F 38.0 °F 42.8 °F 100% 30.04 in 10.0 mi NNW 8.1 mph - 0.00 in   Clear
6:35 PM 41.0 °F 37.1 °F 39.2 °F 93% 30.03 in 10.0 mi NW 5.8 mph - 0.00 in   Clear
6:55 PM 39.2 °F 35.0 °F 39.2 °F 100% 30.03 in 10.0 mi NNW 5.8 mph - 0.00 in   Clear
7:15 PM 39.2 °F 35.9 °F 39.2 °F 100% 30.02 in 10.0 mi NNW 4.6 mph - 0.00 in   Clear
7:35 PM 39.2 °F 33.6 °F 37.4 °F 93% 30.01 in 10.0 mi NE 8.1 mph - 0.00 in   Clear
7:55 PM 44.6 °F 39.7 °F 33.8 °F 66% 30.01 in 10.0 mi NE 9.2 mph - 0.00 in   Clear
8:15 PM 44.6 °F 39.2 °F 33.8 °F 66% 30.00 in 10.0 mi ENE 10.4 mph - 0.00 in   Clear
8:35 PM 44.6 °F 39.2 °F 33.8 °F 66% 30.01 in 10.0 mi East 10.4 mph - 0.00 in   Clear
8:55 PM 44.6 °F 38.4 °F 33.8 °F 66% 30.00 in 10.0 mi East 12.7 mph - 0.00 in   Clear
9:15 PM 42.8 °F 38.6 °F 33.8 °F 70% 30.00 in 10.0 mi ENE 6.9 mph - 0.00 in   Clear
9:35 PM 42.8 °F 37.0 °F 33.8 °F 70% 30.00 in 10.0 mi ENE 10.4 mph - 0.00 in   Clear
9:55 PM 42.8 °F 37.0 °F 33.8 °F 70% 30.00 in 10.0 mi ENE 10.4 mph - 0.00 in   Clear
10:15 PM 42.8 °F 36.6 °F 32.0 °F 66% 30.00 in 10.0 mi ENE 11.5 mph - 0.00 in   Clear
10:35 PM 42.8 °F 38.0 °F 32.0 °F 66% 30.00 in 10.0 mi ENE 8.1 mph - 0.00 in   Clear
10:55 PM 42.8 °F 37.5 °F 32.0 °F 66% 29.99 in 10.0 mi ENE 9.2 mph - 0.00 in   Clear
11:15 PM 42.8 °F 36.6 °F 32.0 °F 66% 29.97 in 10.0 mi ENE 11.5 mph - 0.00 in   Clear
11:35 PM 42.8 °F 36.6 °F 32.0 °F 66% 29.97 in 10.0 mi ENE 11.5 mph 17.3 mph 0.00 in   Clear
11:55 PM 42.8 °F 37.5 °F 32.0 °F 66% 29.97 in 10.0 mi ENE 9.2 mph - 0.00 in   Clear